Other Public Products
Issued by NWS Charleston, SC

Current Version | Previous Version | Text Only | Print | Product List | Glossary Off
Versions: 1 2 3 4 5 6 7 8 9 10 11 12 13 14 15 16 17 18 19 20 21 22 23 24 25 26 27 28 29 30 31 32 33 34 35 36 37 38 39 40 41 42 43 44 45 46 47 48 49 50
000 FPUS82 KCHS 210227 OPUCHS TEST...KCHS/KSAV Gateway Observations...TEST National Weather Service Charleston SC 1000 PM EDT THU JUL 20 2017 NOTE: "fair" indicates few or no clouds below 12,000 feet with no significant weather and/or obstructions to visibility. SCZ050-WAZ558-NCZ071-TXZ119-213-PAZ071-DCZ001-FLZ074-172-MI076- NYZ176-178-MAZ016-IL014-TNZ027-NJZ106-GAZ044-MD014-210300- ...Gateway Observations for Charleston International... CITY SKY/WX TMP DP RH WIND PRES REMARKS Chas Airport PTCLDY 78 72 81 S6 30.03R Seattle MOSUNNY 71 50 47 SW12 30.12S Charlotte PTCLDY 82 71 69 S7 30.02R Dallas DFW CLEAR 92 71 50 SE12 29.97R HX 98 Dallas Love CLEAR 92 70 48 SE16 29.98R HX 97 Philladelphia MOCLDY 86 66 51 N13 29.91S Wash National MOCLDY 88 77 69 S9 29.92S HX 100 Baltimore MOCLDY 85 72 65 SW3 29.91S HX 91 Miami MOCLDY 85 75 72 SE7 30.07S HX 93 Detroit MOCLDY 80 71 74 S5 29.95S Newark CLOUDY 78 69 73 W10 29.89S Laguardia CLOUDY 81 70 69 W10 29.88R J F K CLOUDY 83 72 69 W15 29.89R Boston Logan CLOUDY 78 68 71 NE5 29.84S Ft. Lauderdale MOCLDY 83 77 82 S5 30.06S HX 92 Chicago O`Hare PTCLDY 78 69 73 E6 29.97R Chicago Midway MOCLDY 80 70 71 E8 29.97R Houston Bush PTCLDY 87 75 67 S6 30.00S HX 96 Houston Hobby PTCLDY 87 74 64 S8 30.00S HX 95 Nashville PTCLDY 86 72 62 CALM 30.04R HX 92 Atlanta PTCLDY 85 69 58 NW8 30.04S $$ GAZ044-118-TXZ119-213-NCZ071-DCZ001-MDZ014-506-PAZ021-071-NJZ106- NYZ176-178-MAZ106-OHZ011-021-055-MIZ076-KYZ091-ILZ014-INZ047- MNZ060-ONZ431-210300- ...Gateway Observations for Savannah International... CITY SKY/WX TMP DP RH WIND PRES REMARKS Savannah Arpt CLOUDY 77 71 82 CALM 30.05R Atlanta PTCLDY 85 69 58 NW8 30.04S Charlotte PTCLDY 82 71 69 S7 30.02R Dallas DFW CLEAR 92 71 50 SE12 29.97R HX 98 Houston Bush PTCLDY 87 75 67 S6 30.00S HX 96 Wash National MOCLDY 88 77 69 S9 29.92S HX 100 Wash Dulles MOCLDY 83 72 69 W3 29.94R Baltimore MOCLDY 85 72 65 SW3 29.91S HX 91 Philadelphia MOCLDY 86 66 51 N13 29.91S Newark CLOUDY 78 69 73 W10 29.89S Laguardia CLOUDY 81 70 69 W10 29.88R J F K CLOUDY 83 72 69 W15 29.89R Boston CLOUDY 78 68 71 NE5 29.84S Pittsburg CLOUDY 76 72 87 SW7 30.00S Akron PTCLDY 79 69 71 SW7 29.99R Cleveland MOCLDY 83 68 60 CALM 29.98R Cincinnati MOCLDY 80 74 81 SW5 30.01S Columbus CLOUDY 78 75 89 S6 30.00S Detroit MOCLDY 80 71 74 S5 29.95S Chicago O`Hare PTCLDY 78 69 73 E6 29.97R Minneapolis PTCLDY 85 59 41 SE3 29.95F Indianapolis PTCLDY 82 77 84 SW6 29.98R HX 90 Toronto Canada PTCLDY 70 63 78 SE3 29.89S $$

USA.gov is the U.S. government's official web portal to all federal, state and local government web resources and services.